[[{"header":{"parameterUnit":"m.s-1","parameterCategory":1,"la1":30.2991,"la2":30.254,"lo1":-89.0895,"lo2":-89.0444,"dy":0.0017,"dx":0.0017,"nx":28,"ny":28,"refTime":"2024-05-22T21:00:00:Z","depth":0,"parameterNumber":2,"parameterNumberName":"U-component_of_WINDS"},"data":[0,0,0,0,0,0,0,0,0,0,0,0,0,0,0,0,0,0,0,0,0,0,0,0,0,0,0,0,0,0,0,0,0,0,0,0,0,0,0,0,0,0,0,0,0,0,0,0,0,0,0,0,0,0,0,0,0,0,-3.5006,-3.5006,0,-3.5023,-3.5023,-3.5023,-3.4981,-3.4979,-3.4978,-3.4977,-3.4994,-3.4996,-3.4998,0,0,0,0,0,0,0,0,0,0,0,0,0,-3.4939,-3.494,-3.5006,-3.5006,-3.5007,-3.5023,-3.5023,-3.5024,-3.4981,-3.4979,-3.4978,-3.4976,-3.4994,-3.4996,-3.4998,0,0,0,0,0,0,0,0,0,0,0,0,0,-3.4963,-3.4941,-3.5006,-3.4987,-3.4986,-3.5023,-3.5023,-3.5024,-3.4981,-3.4979,-3.4977,-3.4975,-3.4993,-3.4996,-3.4998,-3.5054,0,0,-3.5006,-3.5007,0,0,0,0,0,0,0,0,-3.4962,-3.4966,-3.499,-3.4989,-3.4987,-3.4998,-3.5006,-3.5034,-3.4982,-3.4983,-3.4977,-3.4974,-3.4997,-3.4999,-3.5007,-3.5055,-3.5056,-3.5006,-3.5008,-3.5009,-3.501,0,0,0,0,0,0,0,-3.496,-3.4965,-3.5013,-3.499,-3.4988,-3.4979,-3.498,-3.5011,-3.5001,-3.4983,-3.498,-3.4982,-3.4996,-3.5004,-3.5007,-3.5056,-3.5006,-3.5008,-3.501,-3.5011,-3.5154,-3.5156,0,0,0,0,0,0,-3.4961,-3.4964,-3.5012,-3.5013,-3.4969,-3.4982,-3.4983,-3.4996,-3.5001,-3.4999,-3.4984,-3.498,-3.5001,-3.5004,-3.5007,-3.5074,-3.5009,-3.5011,-3.5013,-3.5152,-3.5155,-3.5157,0,0,0,0,0,0,-3.4959,-3.4965,-3.5012,-3.4988,-3.4993,-3.4985,-3.5,-3.4998,-3.5006,-3.5002,-3.5,-3.4994,-3.4999,-3.5004,-3.5044,-3.5074,-3.5012,-3.5015,-3.5149,-3.5153,-3.5156,-3.5208,0,0,0,0,0,0,-3.4958,-3.4965,-3.4986,-3.4988,-3.4994,-3.5047,-3.5002,-3.4999,-3.5011,-3.5006,-3.5011,-3.501,-3.4998,-3.504,-3.5046,-3.5077,-3.5017,-3.5146,-3.5151,-3.5155,-3.5204,-3.5213,-3.5221,0,0,0,0,0,-3.4955,-3.5,-3.4987,-3.4993,-3.502,-3.5049,-3.5052,-3.5038,-3.5013,-3.5034,-3.5032,-3.501,-3.5071,-3.5044,-3.5051,-3.5083,-3.5144,-3.515,-3.5154,-3.52,-3.5211,-3.5221,0,0,0,0,0,0,-3.5,-3.4999,-3.4985,-3.5032,-3.5041,-3.5041,-3.5067,-3.505,-3.5066,-3.5061,-3.5043,-3.5045,-3.5088,-3.509,-3.506,-3.5139,-3.5103,-3.511,-3.5136,-3.5146,-3.5155,-3.5153,-3.5019,0,0,0,0,0,-3.5016,-3.5039,-3.5037,-3.5078,-3.5083,-3.5075,-3.5087,-3.5076,-3.5084,-3.5087,-3.5088,-3.5097,-3.5119,-3.5133,-3.5152,-3.5205,-3.5206,-3.523,-3.5239,-3.5246,-3.5251,-3.5281,-3.5292,-3.5174,-3.5174,-3.5174,0,0,-3.5047,-3.505,-3.5065,-3.5087,-3.5093,-3.5118,-3.5078,-3.5106,-3.5124,-3.5092,-3.5129,-3.513,-3.514,-3.5187,-3.5207,-3.5189,-3.5285,-3.5252,-3.5258,-3.526,-3.5287,-3.5298,-3.5308,-3.5177,-3.5176,-3.5176,0,0,-3.5117,-3.5121,-3.5156,-3.5163,-3.5173,-3.5167,-3.5176,-3.518,-3.518,-3.5217,-3.5194,-3.5216,-3.5253,-3.5261,-3.527,-3.5347,-3.5328,-3.5355,-3.5399,-3.5428,-3.5437,-3.5445,-3.5473,-3.5483,-3.536,-3.536,-3.5361,0,-3.5155,-3.5191,-3.5177,-3.5207,-3.5217,-3.519,-3.5226,-3.5234,-3.5249,-3.5258,-3.5238,-3.5285,-3.5289,-3.5338,-3.5357,-3.5366,-3.5376,-3.5353,-3.5437,-3.5445,-3.5452,-3.5478,-3.5489,-3.5364,-3.5363,-3.5363,-3.5363,0,-3.5238,-3.5263,-3.5291,-3.5307,-3.5321,-3.5354,-3.5345,-3.5362,-3.5351,-3.5348,-3.5388,-3.5393,-3.5413,-3.5424,-3.5413,-3.5472,-3.5461,-3.544,-3.5403,-3.5467,-3.5491,-3.5501,-3.5368,-3.5367,-3.5366,-3.5365,0,0,-3.5333,-3.5343,-3.5353,-3.5361,-3.5371,-3.5391,-3.5424,-3.5444,-3.5459,-3.5471,-3.5499,-3.5532,-3.5513,-3.5523,-3.5513,-3.5539,-3.56,-3.5514,-3.5514,-3.5529,-3.5667,-3.5682,-3.5694,-3.5588,-3.559,-3.5591,-3.5666,0,-3.5402,-3.5458,-3.5447,-3.5501,-3.5526,-3.5502,-3.5531,-3.5541,-3.554,-3.5561,-3.556,-3.5584,-3.5557,-3.5563,-3.5588,-3.5587,-3.5627,-3.5582,-3.5613,-3.5615,-3.561,-3.5706,-3.5722,-3.5792,-3.5675,-3.5677,-3.5678,0,-3.5489,-3.5506,-3.5563,-3.5571,-3.5581,-3.5606,-3.5625,-3.5646,-3.5658,-3.5655,-3.5669,-3.5655,-3.5688,-3.5654,-3.57,-3.567,-3.5683,-3.5685,-3.5687,-3.5689,-3.5649,-3.571,-3.5814,-3.5824,-3.5693,-3.5692,-3.5691,0,-3.5553,-3.559,-3.5629,-3.5637,-3.5647,-3.5666,-3.5671,-3.568,-3.5694,-3.5712,-3.572,-3.5742,-3.5753,-3.577,-3.5763,-3.5738,-3.5811,-3.5775,-3.5811,-3.5811,-3.5825,-3.5824,-3.5933,-3.5836,-3.5836,-3.5835,-3.5835,0,-3.5631,-3.5666,-3.5658,-3.5682,-3.5722,-3.5711,-3.5751,-3.5754,-3.5763,-3.5788,-3.5769,-3.5793,-3.5782,-3.5806,-3.5801,-3.5841,-3.5846,-3.5846,-3.5844,-3.5847,-3.5847,-3.5854,-3.5848,-3.5838,-3.5838,-3.5837,-3.5837,0,-3.5708,-3.5703,-3.5745,-3.5752,-3.5755,-3.5784,-3.579,-3.5813,-3.5812,-3.5844,-3.5851,-3.585,-3.5877,-3.5872,-3.5901,-3.5898,-3.5948,-3.5941,-3.5944,-3.5942,-3.5977,-3.5974,-3.6093,-3.6108,-3.6002,-3.6003,-3.6004,0,-3.5756,-3.5784,-3.5794,-3.581,-3.5817,-3.5842,-3.5856,-3.5847,-3.5863,-3.588,-3.5901,-3.5927,-3.5946,-3.5991,-3.5993,-3.6016,-3.6009,-3.6049,-3.6012,-3.6015,-3.6009,-3.6007,-3.601,-3.6056,-3.6057,-3.6058,-3.6059,0,-3.5844,-3.5841,-3.5862,-3.5884,-3.5902,-3.5918,-3.5933,-3.5947,-3.594,-3.5959,-3.5986,-3.6002,-3.6033,-3.6059,-3.6082,-3.6088,-3.6072,-3.6071,-3.608,-3.6083,-3.6084,-3.6084,-3.5963,-3.6068,-3.6067,-3.6066,-3.6066,-3.6065,-3.5908,-3.5932,-3.5943,-3.5968,-3.5979,-3.5994,-3.6016,-3.6019,-3.6042,-3.6066,-3.606,-3.6092,-3.6105,-3.6134,-3.6143,-3.6168,-3.6153,-3.6166,-3.617,-3.6173,-3.6177,-3.6081,-3.6172,-3.6172,-3.6172,-3.6171,-3.6171,0,-3.5994,-3.6002,-3.6025,-3.6046,-3.6067,-3.6052,-3.6068,-3.6086,-3.6114,-3.6128,-3.6148,-3.6181,-3.6207,-3.6212,-3.6237,-3.6256,-3.625,-3.6263,-3.6261,-3.6263,-3.6189,-3.6178,-3.6268,-3.6268,-3.6268,-3.6268,-3.6268,-3.6268,-3.6042,-3.6081,-3.608,-3.6126,-3.6132,-3.6163,-3.6174,-3.6188,-3.6199,-3.6237,-3.6258,-3.6262,-3.6272,-3.6298,-3.6322,-3.6323,-3.6333,-3.6349,-3.6347,-3.6277,-3.6268,-3.6258,-3.6248,-3.6351,-3.6351,-3.6418,-3.6419,-3.6419]},{"header":{"parameterUnit":"m.s-1","parameterCategory":1,"la1":30.2991,"la2":30.254,"lo1":-89.0895,"lo2":-89.0444,"dy":0.0017,"dx":0.0017,"nx":28,"ny":28,"refTime":"2024-05-22T21:00:00:Z","depth":0,"parameterNumber":3,"parameterNumberName":"V-component_of_WINDS"},"data":[0,0,0,0,0,0,0,0,0,0,0,0,0,0,0,0,0,0,0,0,0,0,0,0,0,0,0,0,0,0,0,0,0,0,0,0,0,0,0,0,0,0,0,0,0,0,0,0,0,0,0,0,0,0,0,0,0,0,4.3866,4.3866,0,4.3872,4.3872,4.3872,4.3897,4.3898,4.3899,4.3899,4.3902,4.3902,4.3902,0,0,0,0,0,0,0,0,0,0,0,0,0,4.3873,4.3873,4.3866,4.3866,4.3866,4.3872,4.3872,4.3872,4.3897,4.3898,4.3899,4.39,4.3903,4.3902,4.3901,0,0,0,0,0,0,0,0,0,0,0,0,0,4.3873,4.3873,4.3866,4.3879,4.388,4.3872,4.3872,4.3872,4.3897,4.3898,4.3899,4.39,4.3903,4.3902,4.3901,4.3879,0,0,4.3899,4.3899,0,0,0,0,0,0,0,0,4.3873,4.3873,4.3877,4.3878,4.388,4.3885,4.3876,4.3874,4.3897,4.3891,4.3899,4.39,4.3896,4.3896,4.3895,4.3879,4.388,4.3899,4.3899,4.3898,4.3898,0,0,0,0,0,0,0,4.3873,4.3873,4.3868,4.3877,4.3879,4.3884,4.3885,4.3876,4.3888,4.3891,4.3893,4.3894,4.3897,4.3895,4.3895,4.388,4.3899,4.3899,4.3898,4.3898,4.3847,4.3846,0,0,0,0,0,0,4.3872,4.3873,4.3868,4.3868,4.3879,4.3883,4.3885,4.3882,4.3888,4.389,4.3893,4.3895,4.3896,4.3896,4.3895,4.387,4.3898,4.3898,4.3897,4.3848,4.3847,4.3846,0,0,0,0,0,0,4.3872,4.3871,4.3868,4.3871,4.3871,4.3882,4.388,4.3882,4.3881,4.389,4.3892,4.389,4.3897,4.3896,4.3883,4.3871,4.3897,4.3897,4.3849,4.3848,4.3847,4.3819,0,0,0,0,0,0,4.3872,4.3871,4.3863,4.3871,4.3871,4.3856,4.3879,4.3881,4.388,4.3883,4.3887,4.3889,4.3897,4.3884,4.3883,4.387,4.3896,4.385,4.3849,4.3847,4.3821,4.3817,4.3814,0,0,0,0,0,4.3872,4.3854,4.3863,4.3862,4.3861,4.3856,4.3855,4.3867,4.3879,4.3871,4.3877,4.3888,4.3872,4.3883,4.3881,4.3868,4.3851,4.3849,4.3847,4.3823,4.3818,4.3814,0,0,0,0,0,0,4.3843,4.3855,4.3865,4.3849,4.3851,4.386,4.385,4.3861,4.3859,4.3861,4.3875,4.3876,4.3861,4.3863,4.3875,4.3847,4.3864,4.3861,4.3846,4.3841,4.3838,4.3837,4.3896,0,0,0,0,0,4.3835,4.383,4.3841,4.3826,4.3827,4.3838,4.3836,4.3845,4.3847,4.3848,4.3853,4.3854,4.3849,4.3845,4.3842,4.3822,4.3824,4.3813,4.3809,4.3805,4.3803,4.3793,4.3788,4.3839,4.3839,4.3839,0,0,4.3818,4.3824,4.382,4.3821,4.3823,4.3817,4.3839,4.3831,4.3827,4.3846,4.3835,4.3839,4.3841,4.3825,4.3818,4.3826,4.3789,4.3803,4.38,4.3799,4.379,4.3786,4.3781,4.3838,4.3838,4.3838,0,0,4.3784,4.3789,4.3777,4.378,4.3784,4.3792,4.3789,4.3797,4.38,4.3789,4.3804,4.3799,4.379,4.3791,4.3791,4.3759,4.3769,4.3757,4.3736,4.3727,4.3722,4.3719,4.3707,4.3703,4.3755,4.3755,4.3755,0,4.3762,4.3755,4.3769,4.3761,4.3761,4.378,4.3768,4.377,4.3772,4.3771,4.3781,4.3772,4.3774,4.3759,4.3751,4.375,4.3747,4.3756,4.3722,4.3719,4.3716,4.3705,4.37,4.3753,4.3753,4.3753,4.3753,0,4.3727,4.3722,4.3712,4.3715,4.3714,4.3703,4.3716,4.3713,4.3722,4.3729,4.3718,4.3722,4.372,4.3717,4.3725,4.3703,4.3708,4.372,4.3737,4.3709,4.3699,4.3695,4.3751,4.3751,4.3752,4.3752,0,0,4.3674,4.3687,4.3683,4.3685,4.3692,4.3687,4.3678,4.3677,4.3674,4.3676,4.3668,4.3661,4.3673,4.3672,4.3681,4.3672,4.3647,4.3685,4.3686,4.3678,4.3623,4.3613,4.3608,4.3655,4.3654,4.3653,4.3622,0,4.3641,4.3627,4.3641,4.3624,4.3619,4.3638,4.363,4.3633,4.364,4.3636,4.3643,4.3638,4.3653,4.3653,4.3645,4.3652,4.3636,4.3654,4.3647,4.3647,4.3645,4.3603,4.3593,4.3563,4.3618,4.3618,4.3617,0,4.3601,4.3602,4.3585,4.3594,4.3592,4.3585,4.3586,4.3582,4.3586,4.3592,4.3592,4.3603,4.3595,4.3612,4.36,4.3612,4.361,4.3613,4.3612,4.3611,4.363,4.36,4.3554,4.3549,4.3611,4.3612,4.3612,0,4.3563,4.3561,4.355,4.3551,4.3562,4.3556,4.356,4.3565,4.3564,4.3564,4.3564,4.3563,4.3562,4.356,4.3571,4.3583,4.3558,4.3576,4.3561,4.3561,4.3554,4.3554,4.3506,4.3554,4.3554,4.3554,4.3554,0,4.3525,4.3514,4.3534,4.3527,4.3515,4.3531,4.3518,4.3524,4.3529,4.3523,4.3539,4.3534,4.3549,4.3545,4.3553,4.3542,4.3541,4.3545,4.3547,4.3543,4.3543,4.3541,4.3543,4.3553,4.3553,4.3553,4.3554,0,4.3481,4.3494,4.3484,4.3495,4.3497,4.3488,4.3497,4.3491,4.35,4.3493,4.3492,4.3504,4.35,4.3511,4.3509,4.3515,4.3498,4.3504,4.3497,4.3499,4.3483,4.3484,4.3432,4.3426,4.3478,4.3478,4.3477,0,4.3455,4.3447,4.3458,4.3457,4.346,4.3457,4.3456,4.3471,4.347,4.3474,4.3468,4.3466,4.3465,4.3457,4.3466,4.3464,4.3469,4.3451,4.3469,4.3466,4.3469,4.3469,4.3468,4.3447,4.3447,4.3446,4.3446,0,4.3409,4.3416,4.3415,4.3416,4.3416,4.3417,4.3419,4.3417,4.3433,4.3431,4.3428,4.3427,4.3425,4.3423,4.3423,4.3426,4.3438,4.344,4.3437,4.3432,4.3428,4.343,4.3487,4.3441,4.3442,4.3442,4.3442,4.3442,4.3373,4.3367,4.3374,4.3373,4.3377,4.3379,4.3374,4.3382,4.338,4.3381,4.339,4.3385,4.339,4.3392,4.3394,4.339,4.3398,4.3393,4.3392,4.339,4.3388,4.343,4.339,4.339,4.3391,4.3391,4.3391,0,4.3327,4.3333,4.3332,4.3335,4.3334,4.3347,4.3351,4.3349,4.3345,4.3349,4.3348,4.3345,4.3343,4.3351,4.335,4.3346,4.3351,4.3345,4.3345,4.3345,4.338,4.3383,4.334,4.334,4.334,4.334,4.334,4.334,4.3303,4.3294,4.3302,4.3295,4.3301,4.3297,4.3298,4.33,4.3303,4.3299,4.3298,4.3304,4.331,4.331,4.3309,4.3311,4.331,4.3301,4.3306,4.3338,4.3343,4.3347,4.335,4.3301,4.3301,4.3271,4.3271,4.327]}]]